Home   Weather   Flagstaff   Past weeks

Flag for USA Past Weather in Flagstaff, Arizona, USA — Yesterday and Last 2 Weeks

Now
60 °F

Scattered clouds.


Feels Like: 60 °F
Forecast: 43 / 74 °F
Wind: No wind

Location: Flagstaff Pulliam Airport

Current Time: Aug 16, 2017 at 8:32:14 am

Latest Report: Aug 16, 2017 at 7:57 am


Visibility: 10 mi

Pressure: 30.01 "Hg (23.40 "Hg at 2103m altitude)

Humidity: 49%

Dew Point: 41 °F

Location of FlagstaffLocation

Past Weather in Flagstaff — Graph

°F

Flagstaff Temperature Yesterday

Maximum temperature yesterday: 67 °F (at 2:57 pm)
Minimum temperature yesterday: 45 °F (at 11:57 pm)
Average temperature yesterday: 57 °F

High & Low Weather Summary for the Past Weeks

 TemperatureHumidityPressure
High81 °F (Aug 2, 2:57 pm)100% (Aug 4, 10:30 pm)30.41 "Hg (Aug 4, 10:30 pm)
Low40 °F (Aug 16, 3:57 am)20% (Aug 9, 10:57 am)29.81 "Hg (Aug 15, 4:57 am)
Average63 °F69%30.04 "Hg
* Reported Aug 1 6:57 am — Aug 16 6:57 am, Flagstaff. Weather by CustomWeather, © 2017

Note: Actual official high and low records may vary slightly from our data, if they occured in-between our weather recording intervals... More about our weather records

Advertising

Flagstaff Weather History for the Previous 24 Hours

Scroll right to see more
 ConditionsComfort  
Time TempWeatherWind HumidityBarometerVisibility
6:57 am
Wed, Aug 16
45 °FScattered clouds.No wind76%30.03 "Hg10 mi
5:57 am40 °FScattered clouds.No wind83%30.02 "Hg10 mi
4:57 am40 °FClear.No wind83%29.99 "Hg10 mi
3:57 am40 °FClear.No wind80%29.99 "Hg10 mi
2:57 am41 °FClear.No wind80%29.98 "Hg10 mi
1:57 am43 °FClear.No wind79%29.97 "Hg10 mi
12:57 am43 °FClear.No wind79%29.98 "Hg10 mi
11:57 pm
Tue, Aug 15
45 °FClear.No wind80%29.97 "Hg10 mi
10:57 pm46 °FClear.No wind77%29.98 "Hg10 mi
9:57 pm49 °FClear.No wind66%29.97 "Hg10 mi
8:57 pm51 °FClear.No wind69%29.95 "Hg10 mi
7:57 pm57 °FClear.No wind49%29.93 "Hg10 mi
6:57 pm62 °FSunny.5 mph38%29.92 "Hg10 mi
5:57 pm66 °FPassing clouds.13 mph29%29.89 "Hg10 mi
4:57 pm67 °FSunny.14 mph27%29.87 "Hg10 mi
3:57 pm67 °FPartly sunny.20 mph27%29.90 "Hg10 mi
2:57 pm67 °FSunny.18 mph31%29.91 "Hg10 mi
1:57 pm66 °FSunny.15 mph34%29.91 "Hg10 mi
12:57 pm66 °FPassing clouds.10 mph33%29.90 "Hg10 mi
11:57 am66 °FSunny.18 mph32%29.91 "Hg10 mi
10:57 am64 °FSunny.14 mph37%29.92 "Hg10 mi
9:57 am61 °FSunny.13 mph44%29.93 "Hg10 mi
8:57 am61 °FSunny.10 mph44%29.90 "Hg10 mi
Weather by CustomWeather, © 2017

See weather overviewHow to use our weather pages